TimeCST,TemperatureF,Dew PointF,Humidity,Sea Level PressureIn,VisibilityMPH,Wind Direction,Wind SpeedMPH,Gust SpeedMPH,PrecipitationIn,Events,Conditions,WindDirDegrees,DateUTC
12:15 AM,30.2,24.8,80,30.01,10.0,Calm,Calm,-,N/A,,Clear,0,2013-02-25 06:15:00
12:35 AM,28.4,24.8,86,30.01,10.0,Calm,Calm,-,N/A,,Clear,0,2013-02-25 06:35:00
12:55 AM,28.4,24.8,86,30.00,10.0,Calm,Calm,-,N/A,,Clear,0,2013-02-25 06:55:00
1:15 AM,26.6,24.8,93,30.00,10.0,NE,3.5,-,N/A,,Clear,40,2013-02-25 07:15:00
1:35 AM,30.2,24.8,80,29.98,10.0,NNE,5.8,-,N/A,,Clear,30,2013-02-25 07:35:00
1:55 AM,32.0,26.6,80,29.99,10.0,Calm,Calm,-,N/A,,Clear,0,2013-02-25 07:55:00
2:15 AM,32.0,24.8,75,30.00,10.0,ENE,3.5,-,N/A,,Clear,60,2013-02-25 08:15:00
2:35 AM,28.4,24.8,86,29.99,10.0,Calm,Calm,-,N/A,,Clear,0,2013-02-25 08:35:00
2:55 AM,28.4,24.8,86,30.00,10.0,Calm,Calm,-,N/A,,Clear,0,2013-02-25 08:55:00
3:15 AM,28.4,26.6,93,29.99,10.0,Calm,Calm,-,N/A,,Clear,0,2013-02-25 09:15:00
3:35 AM,28.4,26.6,93,29.99,10.0,Calm,Calm,-,N/A,,Clear,0,2013-02-25 09:35:00
3:55 AM,28.4,26.6,93,29.99,10.0,Calm,Calm,-,N/A,,Clear,0,2013-02-25 09:55:00
4:15 AM,26.6,26.6,100,30.00,10.0,Calm,Calm,-,N/A,,Clear,0,2013-02-25 10:15:00
4:35 AM,28.4,24.8,86,30.00,10.0,Calm,Calm,-,N/A,,Clear,0,2013-02-25 10:35:00
4:55 AM,30.2,24.8,80,29.99,10.0,NE,5.8,-,N/A,,Clear,50,2013-02-25 10:55:00
5:15 AM,28.4,26.6,93,29.99,10.0,NE,3.5,-,N/A,,Clear,50,2013-02-25 11:15:00
5:35 AM,32.0,26.6,80,29.98,10.0,NNE,4.6,-,N/A,,Clear,20,2013-02-25 11:35:00
5:55 AM,32.0,24.8,75,29.98,10.0,Calm,Calm,-,N/A,,Clear,0,2013-02-25 11:55:00
6:15 AM,33.8,24.8,70,29.99,10.0,NE,4.6,-,N/A,,Clear,40,2013-02-25 12:15:00
6:35 AM,32.0,24.8,75,29.98,10.0,NE,4.6,-,N/A,,Clear,50,2013-02-25 12:35:00
6:55 AM,33.8,24.8,70,30.00,10.0,Calm,Calm,-,N/A,,Clear,0,2013-02-25 12:55:00
7:15 AM,30.2,26.6,86,30.00,10.0,Calm,Calm,-,N/A,,Clear,0,2013-02-25 13:15:00
7:35 AM,32.0,26.6,80,29.99,10.0,Calm,Calm,-,N/A,,Clear,0,2013-02-25 13:35:00
7:55 AM,35.6,28.4,75,30.00,10.0,NNE,3.5,-,N/A,,Clear,20,2013-02-25 13:55:00
8:15 AM,35.6,28.4,75,29.99,10.0,North,3.5,-,N/A,,Clear,10,2013-02-25 14:15:00
8:35 AM,37.4,30.2,75,29.99,10.0,Calm,Calm,-,N/A,,Clear,0,2013-02-25 14:35:00
8:55 AM,41.0,26.6,57,29.99,10.0,Calm,Calm,-,N/A,,Clear,0,2013-02-25 14:55:00
9:15 AM,42.8,26.6,53,29.99,10.0,ENE,3.5,-,N/A,,Clear,70,2013-02-25 15:15:00
9:35 AM,46.4,28.4,50,29.98,10.0,ESE,3.5,-,N/A,,Clear,110,2013-02-25 15:35:00
9:55 AM,48.2,26.6,43,29.98,10.0,SE,6.9,-,N/A,,Clear,130,2013-02-25 15:55:00
10:15 AM,50.0,28.4,43,29.95,10.0,ESE,8.1,-,N/A,,Clear,110,2013-02-25 16:15:00
10:35 AM,51.8,28.4,41,29.96,10.0,Variable,6.9,-,N/A,,Clear,0,2013-02-25 16:35:00
10:55 AM,53.6,28.4,38,29.95,10.0,ESE,8.1,-,N/A,,Clear,110,2013-02-25 16:55:00
11:15 AM,55.4,28.4,36,29.94,10.0,ESE,6.9,-,N/A,,Clear,120,2013-02-25 17:15:00
11:35 AM,55.4,30.2,38,29.93,10.0,Variable,5.8,-,N/A,,Clear,0,2013-02-25 17:35:00
11:55 AM,57.2,30.2,36,29.92,10.0,East,8.1,-,N/A,,Clear,90,2013-02-25 17:55:00
12:15 PM,60.8,30.2,31,29.91,10.0,Variable,3.5,-,N/A,,Clear,0,2013-02-25 18:15:00
1:15 PM,60.8,33.8,36,29.88,10.0,South,13.8,-,N/A,,Clear,170,2013-02-25 19:15:00
1:35 PM,60.8,33.8,36,29.87,10.0,South,9.2,-,N/A,,Clear,170,2013-02-25 19:35:00
1:55 PM,60.8,35.6,39,29.87,10.0,South,10.4,-,N/A,,Clear,180,2013-02-25 19:55:00
2:15 PM,62.6,35.6,37,29.86,10.0,SSE,9.2,-,N/A,,Clear,160,2013-02-25 20:15:00
2:35 PM,62.6,37.4,39,29.85,10.0,South,11.5,-,N/A,,Clear,180,2013-02-25 20:35:00
2:55 PM,60.8,37.4,42,29.85,10.0,South,12.7,-,N/A,,Clear,180,2013-02-25 20:55:00
3:15 PM,60.8,37.4,42,29.84,10.0,South,13.8,-,N/A,,Partly Cloudy,190,2013-02-25 21:15:00
3:35 PM,57.2,35.6,44,29.84,10.0,South,11.5,-,N/A,,Mostly Cloudy,170,2013-02-25 21:35:00
3:55 PM,57.2,35.6,44,29.83,10.0,SSE,11.5,-,N/A,,Overcast,160,2013-02-25 21:55:00
4:15 PM,55.4,37.4,51,29.81,10.0,SSE,6.9,-,N/A,,Unknown,160,2013-02-25 22:15:00
4:35 PM,55.4,35.6,47,29.80,10.0,SE,10.4,-,N/A,,Overcast,130,2013-02-25 22:35:00
4:55 PM,55.4,35.6,47,29.78,10.0,SE,9.2,-,N/A,,Overcast,130,2013-02-25 22:55:00
5:15 PM,55.4,37.4,51,29.78,10.0,ESE,6.9,-,N/A,,Mostly Cloudy,120,2013-02-25 23:15:00
5:35 PM,55.4,35.6,47,29.78,10.0,SE,9.2,-,N/A,,Mostly Cloudy,130,2013-02-25 23:35:00
5:55 PM,53.6,35.6,51,29.79,10.0,SE,5.8,-,N/A,,Partly Cloudy,140,2013-02-25 23:55:00
6:15 PM,53.6,35.6,51,29.80,10.0,SSE,6.9,-,N/A,,Partly Cloudy,160,2013-02-26 00:15:00
6:35 PM,53.6,35.6,51,29.79,10.0,SSE,6.9,-,N/A,,Partly Cloudy,150,2013-02-26 00:35:00
6:55 PM,51.8,35.6,54,29.80,10.0,SSE,11.5,-,N/A,,Clear,160,2013-02-26 00:55:00
7:15 PM,51.8,35.6,54,29.79,10.0,SE,6.9,-,N/A,,Partly Cloudy,130,2013-02-26 01:15:00
7:35 PM,51.8,35.6,54,29.78,10.0,SE,12.7,-,N/A,,Partly Cloudy,140,2013-02-26 01:35:00
7:55 PM,53.6,35.6,51,29.77,10.0,SE,8.1,-,N/A,,Clear,130,2013-02-26 01:55:00
8:15 PM,51.8,35.6,54,29.77,10.0,ESE,8.1,-,N/A,,Partly Cloudy,120,2013-02-26 02:15:00
8:35 PM,53.6,35.6,51,29.76,10.0,SE,9.2,-,N/A,,Overcast,130,2013-02-26 02:35:00
8:55 PM,53.6,35.6,51,29.74,10.0,SE,10.4,-,N/A,,Mostly Cloudy,130,2013-02-26 02:55:00
9:15 PM,53.6,37.4,54,29.73,10.0,SE,12.7,-,N/A,,Scattered Clouds,140,2013-02-26 03:15:00
9:35 PM,53.6,39.2,58,29.73,10.0,SE,13.8,-,N/A,,Mostly Cloudy,140,2013-02-26 03:35:00
9:55 PM,53.6,39.2,58,29.73,10.0,SE,10.4,-,N/A,,Overcast,140,2013-02-26 03:55:00
10:15 PM,53.6,42.8,67,29.71,10.0,SE,13.8,-,N/A,,Overcast,140,2013-02-26 04:15:00
10:35 PM,53.6,42.8,67,29.69,10.0,SSE,13.8,-,N/A,,Overcast,160,2013-02-26 04:35:00
10:55 PM,53.6,42.8,67,29.69,10.0,SSE,12.7,-,N/A,,Overcast,150,2013-02-26 04:55:00
11:15 PM,53.6,44.6,72,29.67,10.0,SE,11.5,-,N/A,,Overcast,140,2013-02-26 05:15:00
11:35 PM,53.6,44.6,72,29.64,10.0,SE,17.3,-,N/A,,Overcast,140,2013-02-26 05:35:00
11:55 PM,51.8,44.6,76,29.62,10.0,SSE,17.3,-,N/A,,Overcast,150,2013-02-26 05:55:00